Location: Corcelles
(46.1547°N, 4.7234°E)
Time: 08:36:47
(UTC+00:00)

SL-08 R/B - Pass Details

Date: 14 July 2020
Orbit: 674 x 739 km, 98.4° (Epoch: 14 August)

Event Time Altitude Azimuth Distance (km) Brightness Sun altitude
Exits shadow 03:01:16 - 188° (S) 2,517 5.7 -9.2°
Reaches altitude 10° 03:02:12 10° 192° (SSW) 2,160 5.3 -9.1°
Maximum altitude 03:06:39 40° 262° (W) 1,045 3.9 -8.6°
Drops below altitude 10° 03:11:14 10° 332° (NNW) 2,215 6.1 -8.0°
Sets 03:13:40 0° 340° (NNW) 3,151 7.0 -7.7°
